Powrót do katalogu

BEIDOU 3M18

AktywnyNawigacjaMEO
NORAD 43707·PAYLOAD·🇨🇳 China

Wystrzelony Nov 18, 2018 z Xichang Satellite Launch Center

Loading…

Następne Przeloty (najbliższe 24 godziny)

TLE

ŚwieżeSource: CelesTrak SupGP

Epoka: Sep 12, 2026, 00:00 UTC

1 43707C 18093B   26255.00000000  .00000000  00000+0  00000+0 0  2555
2 43707  54.1669 179.3457 0007448 339.7571 271.8335  1.86226776    13

Śledź BEIDOU 3M18 w czasie rzeczywistym z AllMySat

Download on the App Store